| time (UTC) | temp C | wind direction | speed KPH | gust KPH | rain 1hr cm | rain 24hr cm | rain mn cm | humidity % | barometer mb |
| 20260506024715 | 10 | 28 | 14.5 | 20.9 | 0.00 | 0.00 | 0.00 | 64 | 1017.9 |
| 20260506024211 | 11 | 24 | 9.7 | 30.6 | 0.00 | 0.00 | 0.00 | 63 | 1018.0 |
| 20260506023708 | 11 | 20 | 9.7 | 25.7 | 0.00 | 0.00 | 0.00 | 61 | 1018.0 |
| 20260506023205 | 11 | 6 | 11.3 | 17.7 | 0.00 | 0.00 | 0.00 | 60 | 1017.7 |
| 20260506022702 | 12 | 359 | 17.7 | 29.0 | 0.00 | 0.00 | 0.00 | 58 | 1017.4 |
| 20260506022200 | 12 | 332 | 8.0 | 22.5 | 0.00 | 0.00 | 0.00 | 57 | 1017.1 |
| 20260506021657 | 13 | 298 | 17.7 | 25.7 | 0.00 | 0.00 | 0.00 | 54 | 1017.3 |
| 20260506021154 | 13 | 7 | 3.2 | 8.0 | 0.00 | 0.00 | 0.00 | 51 | 1017.0 |
| 20260506020650 | 13 | 302 | 3.2 | 4.8 | 0.00 | 0.00 | 0.00 | 52 | 1016.4 |
| 20260506020148 | 13 | 253 | 1.6 | 3.2 | 0.00 | 0.00 | 0.00 | 51 | 1016.3 |
| 20260506015646 | 14 | 227 | 4.8 | 8.0 | 0.00 | 0.00 | 0.00 | 50 | 1016.2 |
| 20260506015143 | 14 | 237 | 4.8 | 8.0 | 0.00 | 0.00 | 0.00 | 49 | 1016.0 |
| 20260506014640 | 14 | 96 | 0.0 | 4.8 | 0.00 | 0.00 | 0.00 | 50 | 1015.7 |
| 20260506014136 | 15 | 160 | 3.2 | 4.8 | 0.00 | 0.00 | 0.00 | 49 | 1015.7 |
| 20260506013634 | 15 | 157 | 1.6 | 4.8 | 0.00 | 0.00 | 0.00 | 48 | 1015.5 |
| 20260506013131 | 15 | 209 | 6.4 | 9.7 | 0.00 | 0.00 | 0.00 | 47 | 1015.7 |
| 20260506012627 | 15 | 236 | 4.8 | 9.7 | 0.00 | 0.00 | 0.00 | 47 | 1015.7 |
| 20260506012118 | 15 | 247 | 11.3 | 17.7 | 0.00 | 0.00 | 0.00 | 45 | 1015.7 |
| 20260506011616 | 15 | 229 | 9.7 | 12.9 | 0.00 | 0.00 | 0.00 | 45 | 1015.7 |
| 20260506011112 | 15 | 301 | 3.2 | 8.0 | 0.00 | 0.00 | 0.00 | 44 | 1015.4 |
| 20260506010612 | 16 | 27 | 0.0 | 3.2 | 0.00 | 0.00 | 0.00 | 45 | 1015.5 |
| 20260506010108 | 16 | 269 | 8.0 | 8.0 | 0.00 | 0.00 | 0.00 | 43 | 1015.6 |
| 20260506005605 | 15 | 334 | 3.2 | 16.1 | 0.00 | 0.00 | 0.00 | 48 | 1015.5 |
| 20260506005101 | 15 | 227 | 6.4 | 9.7 | 0.00 | 0.00 | 0.00 | 48 | 1016.0 |
| 20260506004558 | 15 | 218 | 8.0 | 12.9 | 0.00 | 0.00 | 0.00 | 52 | 1016.1 |
| 20260506004055 | 15 | 120 | 0.0 | 3.2 | 0.00 | 0.00 | 0.00 | 53 | 1015.4 |
| 20260506003551 | 15 | 97 | 1.6 | 3.2 | 0.00 | 0.00 | 0.00 | 49 | 1015.6 |
| 20260506003048 | 15 | 225 | 1.6 | 3.2 | 0.00 | 0.00 | 0.00 | 49 | 1016.0 |
| 20260506002543 | 15 | 132 | 0.0 | 8.0 | 0.00 | 0.00 | 0.00 | 49 | 1015.6 |
| 20260506002040 | 15 | 92 | 0.0 | 3.2 | 0.00 | 0.00 | 0.00 | 50 | 1015.4 |
| 20260506001536 | 15 | 100 | 1.6 | 3.2 | 0.00 | 0.00 | 0.00 | 49 | 1015.4 |
| 20260506001033 | 15 | 84 | 1.6 | 4.8 | 0.00 | 0.00 | 0.00 | 51 | 1015.4 |
| 20260506000531 | 15 | 103 | 1.6 | 8.0 | 0.00 | 0.00 | 0.00 | 50 | 1015.4 |
| 20260506000028 | 15 | 60 | 0.0 | 4.8 | 0.00 | 0.00 | 0.00 | 50 | 1015.5 |
| 20260505235521 | 15 | 49 | 4.8 | 8.0 | 0.00 | 0.00 | 0.00 | 49 | 1015.5 |
| 20260505235017 | 16 | 74 | 1.6 | 8.0 | 0.00 | 0.00 | 0.00 | 48 | 1015.3 |
| 20260505234514 | 17 | 65 | 0.0 | 3.2 | 0.00 | 0.00 | 0.00 | 45 | 1015.3 |
| 20260505234011 | 16 | 340 | 1.6 | 8.0 | 0.00 | 0.00 | 0.00 | 48 | 1015.6 |
| 20260505233508 | 16 | 77 | 1.6 | 4.8 | 0.00 | 0.00 | 0.00 | 50 | 1015.4 |
| 20260505233006 | 15 | 84 | 0.0 | 4.8 | 0.00 | 0.00 | 0.00 | 51 | 1015.5 |
| 20260505232503 | 15 | 120 | 1.6 | 16.1 | 0.00 | 0.00 | 0.00 | 51 | 1015.4 |
| 20260505232001 | 16 | 172 | 4.8 | 9.7 | 0.00 | 0.00 | 0.00 | 50 | 1015.5 |
| 20260505231457 | 17 | 124 | 4.8 | 12.9 | 0.00 | 0.00 | 0.00 | 51 | 1015.8 |
| 20260505230956 | 16 | 183 | 3.2 | 4.8 | 0.00 | 0.00 | 0.00 | 47 | 1016.0 |
| 20260505230453 | 16 | 315 | 0.0 | 3.2 | 0.00 | 0.00 | 0.00 | 49 | 1016.0 |
| 20260505225949 | 16 | 189 | 3.2 | 8.0 | 0.00 | 0.00 | 0.00 | 50 | 1015.8 |
| 20260505225446 | 15 | 45 | 3.2 | 4.8 | 0.00 | 0.00 | 0.00 | 54 | 1015.8 |
| 20260505224942 | 15 | 98 | 6.4 | 12.9 | 0.00 | 0.00 | 0.00 | 57 | 1016.0 |
| 20260505224439 | 15 | 50 | 1.6 | 17.7 | 0.00 | 0.00 | 0.00 | 59 | 1015.8 |
| 20260505223937 | 15 | 79 | 4.8 | 9.7 | 0.00 | 0.00 | 0.00 | 61 | 1015.8 |
| 20260505223433 | 15 | 104 | 8.0 | 9.7 | 0.00 | 0.00 | 0.00 | 55 | 1016.2 |
| 20260505222930 | 15 | 125 | 4.8 | 8.0 | 0.00 | 0.00 | 0.00 | 63 | 1016.1 |
| 20260505222426 | 13 | 181 | 0.0 | 4.8 | 0.00 | 0.00 | 0.00 | 70 | 1016.7 |
| 20260505221922 | 13 | 127 | 0.0 | 8.0 | 0.00 | 0.00 | 0.00 | 75 | 1016.4 |
| 20260505221420 | 13 | 79 | 1.6 | 3.2 | 0.00 | 0.00 | 0.00 | 75 | 1016.4 |
| 20260505220917 | 12 | 211 | 8.0 | 12.9 | 0.00 | 0.00 | 0.00 | 75 | 1016.3 |
| 20260505220414 | 12 | 168 | 11.3 | 20.9 | 0.00 | 0.00 | 0.00 | 74 | 1016.8 |
| 20260505215911 | 12 | 155 | 1.6 | 9.7 | 0.00 | 0.00 | 0.00 | 76 | 1017.0 |
| 20260505215409 | 12 | 179 | 6.4 | 20.9 | 0.00 | 0.00 | 0.00 | 69 | 1016.9 |
| 20260505214907 | 15 | 38 | 1.6 | 16.1 | 0.00 | 0.00 | 0.00 | 54 | 1016.9 |
| 20260505214404 | 15 | 247 | 6.4 | 12.9 | 0.00 | 0.00 | 0.00 | 52 | 1016.9 |
| 20260505213901 | 15 | 154 | 3.2 | 9.7 | 0.00 | 0.00 | 0.00 | 49 | 1016.8 |
| 20260505213359 | 16 | 220 | 4.8 | 16.1 | 0.00 | 0.00 | 0.00 | 46 | 1016.7 |
| 20260505212855 | 16 | 303 | 6.4 | 9.7 | 0.00 | 0.00 | 0.00 | 44 | 1016.6 |
| 20260505212352 | 16 | 159 | 1.6 | 8.0 | 0.00 | 0.00 | 0.00 | 45 | 1016.7 |
| 20260505211848 | 16 | 295 | 3.2 | 12.9 | 0.00 | 0.00 | 0.00 | 46 | 1016.8 |
| 20260505211346 | 16 | 338 | 3.2 | 8.0 | 0.00 | 0.00 | 0.00 | 45 | 1017.0 |
| 20260505210842 | 16 | 112 | 0.0 | 8.0 | 0.00 | 0.00 | 0.00 | 45 | 1016.8 |
| 20260505210339 | 17 | 201 | 11.3 | 16.1 | 0.00 | 0.00 | 0.00 | 44 | 1016.9 |
| 20260505205836 | 17 | 50 | 0.0 | 3.2 | 0.00 | 0.00 | 0.00 | 45 | 1016.8 |
| 20260505205334 | 16 | 149 | 3.2 | 4.8 | 0.00 | 0.00 | 0.00 | 47 | 1016.9 |
| 20260505204831 | 16 | 351 | 4.8 | 8.0 | 0.00 | 0.00 | 0.00 | 47 | 1016.9 |
| 20260505204329 | 16 | 335 | 4.8 | 12.9 | 0.00 | 0.00 | 0.00 | 48 | 1016.9 |
| 20260505203826 | 16 | 104 | 3.2 | 8.0 | 0.00 | 0.00 | 0.00 | 49 | 1017.3 |
| 20260505203322 | 16 | 356 | 4.8 | 9.7 | 0.00 | 0.00 | 0.00 | 48 | 1017.3 |
| 20260505202819 | 16 | 31 | 0.0 | 3.2 | 0.00 | 0.00 | 0.00 | 48 | 1017.3 |
| 20260505202315 | 16 | 264 | 4.8 | 9.7 | 0.00 | 0.00 | 0.00 | 47 | 1017.0 |
| 20260505201812 | 16 | 324 | 3.2 | 4.8 | 0.00 | 0.00 | 0.00 | 47 | 1017.3 |
| 20260505201309 | 15 | 1 | 3.2 | 12.9 | 0.00 | 0.00 | 0.00 | 50 | 1017.3 |
| 20260505200807 | 15 | 13 | 4.8 | 12.9 | 0.00 | 0.00 | 0.00 | 50 | 1017.4 |
| 20260505200304 | 15 | 309 | 3.2 | 8.0 | 0.00 | 0.00 | 0.00 | 52 | 1017.4 |
| 20260505195759 | 15 | 284 | 8.0 | 9.7 | 0.00 | 0.00 | 0.00 | 52 | 1017.5 |
| 20260505195257 | 15 | 229 | 8.0 | 12.9 | 0.00 | 0.00 | 0.00 | 52 | 1017.5 |
| 20260505194754 | 15 | 217 | 4.8 | 8.0 | 0.00 | 0.00 | 0.00 | 56 | 1017.5 |
| 20260505194251 | 14 | 291 | 1.6 | 12.9 | 0.00 | 0.00 | 0.00 | 56 | 1017.4 |
| 20260505193746 | 15 | 47 | 0.0 | 3.2 | 0.00 | 0.00 | 0.00 | 55 | 1017.7 |
| 20260505193244 | 15 | 57 | 0.0 | 4.8 | 0.00 | 0.00 | 0.00 | 56 | 1017.7 |
| 20260505192742 | 15 | 68 | 1.6 | 8.0 | 0.00 | 0.00 | 0.00 | 55 | 1017.7 |
| 20260505192240 | 15 | 284 | 6.4 | 9.7 | 0.00 | 0.00 | 0.00 | 59 | 1017.9 |
| 20260505191737 | 13 | 112 | 0.0 | 9.7 | 0.00 | 0.00 | 0.00 | 63 | 1017.9 |
| 20260505191236 | 14 | 223 | 9.7 | 16.1 | 0.00 | 0.00 | 0.00 | 60 | 1018.1 |
| 20260505190731 | 13 | 181 | 4.8 | 8.0 | 0.00 | 0.00 | 0.00 | 69 | 1018.0 |
| 20260505190226 | 13 | 162 | 4.8 | 16.1 | 0.05 | 0.00 | 0.00 | 72 | 1017.9 |
| 20260505185722 | 12 | 209 | 9.7 | 12.9 | 0.05 | 0.00 | 0.00 | 73 | 1018.0 |
| 20260505185219 | 12 | 183 | 8.0 | 9.7 | 0.00 | 0.00 | 0.00 | 73 | 1018.0 |
| 20260505184715 | 12 | 128 | 3.2 | 9.7 | 0.00 | 0.00 | 0.00 | 73 | 1018.2 |
| 20260505184213 | 13 | 201 | 9.7 | 16.1 | 0.00 | 0.00 | 0.00 | 69 | 1018.0 |
| 20260505183709 | 13 | 217 | 4.8 | 12.9 | 0.00 | 0.00 | 0.00 | 61 | 1017.9 |
| 20260505183207 | 15 | 345 | 8.0 | 17.7 | 0.00 | 0.00 | 0.00 | 55 | 1017.9 |
| 20260505182702 | 14 | 191 | 8.0 | 12.9 | 0.00 | 0.00 | 0.00 | 52 | 1017.5 |
| 20260505182200 | 14 | 237 | 4.8 | 20.9 | 0.00 | 0.00 | 0.00 | 58 | 1017.6 |
| 20260505181656 | 15 | 190 | 11.3 | 16.1 | 0.00 | 0.00 | 0.00 | 59 | 1018.0 |
| 20260505181154 | 16 | 254 | 6.4 | 16.1 | 0.00 | 0.00 | 0.00 | 59 | 1017.7 |
| 20260505180650 | 16 | 125 | 8.0 | 12.9 | 0.00 | 0.00 | 0.00 | 43 | 1017.7 |
| 20260505180147 | 16 | 251 | 8.0 | 12.9 | 0.00 | 0.00 | 0.00 | 42 | 1017.7 |
| 20260505175643 | 17 | 154 | 3.2 | 9.7 | 0.00 | 0.00 | 0.00 | 40 | 1017.9 |
| 20260505175139 | 17 | 141 | 3.2 | 4.8 | 0.00 | 0.00 | 0.00 | 39 | 1017.6 |
| 20260505174636 | 17 | 232 | 4.8 | 12.9 | 0.00 | 0.00 | 0.00 | 39 | 1017.6 |
| 20260505174132 | 17 | 10 | 3.2 | 12.9 | 0.00 | 0.00 | 0.00 | 40 | 1017.7 |
| 20260505173624 | 17 | 30 | 1.6 | 9.7 | 0.00 | 0.00 | 0.00 | 40 | 1017.6 |
| 20260505173120 | 16 | 58 | 0.0 | 3.2 | 0.00 | 0.00 | 0.00 | 41 | 1017.4 |
| 20260505172618 | 16 | 95 | 4.8 | 9.7 | 0.00 | 0.00 | 0.00 | 43 | 1017.7 |
| 20260505172114 | 15 | 92 | 8.0 | 9.7 | 0.00 | 0.00 | 0.00 | 43 | 1017.6 |
| 20260505171609 | 16 | 348 | 4.8 | 4.8 | 0.00 | 0.00 | 0.00 | 41 | 1017.6 |
| 20260505171106 | 15 | 25 | 3.2 | 8.0 | 0.00 | 0.00 | 0.00 | 44 | 1017.7 |
| 20260505170603 | 15 | 77 | 3.2 | 4.8 | 0.00 | 0.00 | 0.00 | 46 | 1018.0 |
| 20260505170100 | 15 | 13 | 3.2 | 9.7 | 0.00 | 0.00 | 0.00 | 43 | 1018.3 |
| 20260505165554 | 15 | 76 | 0.0 | 3.2 | 0.00 | 0.00 | 0.00 | 44 | 1018.0 |
| 20260505165051 | 14 | 22 | 4.8 | 8.0 | 0.00 | 0.00 | 0.00 | 44 | 1017.9 |
| 20260505164547 | 13 | 314 | 4.8 | 8.0 | 0.00 | 0.00 | 0.00 | 46 | 1017.7 |
| 20260505164045 | 13 | 299 | 3.2 | 8.0 | 0.00 | 0.00 | 0.00 | 48 | 1017.7 |
| 20260505163543 | 13 | 21 | 1.6 | 12.9 | 0.00 | 0.00 | 0.00 | 47 | 1018.1 |
| 20260505163039 | 13 | 41 | 0.0 | 8.0 | 0.00 | 0.00 | 0.00 | 48 | 1017.9 |
| 20260505162532 | 13 | 19 | 3.2 | 8.0 | 0.00 | 0.00 | 0.00 | 49 | 1018.1 |
| 20260505162030 | 12 | 89 | 0.0 | 3.2 | 0.00 | 0.00 | 0.00 | 51 | 1018.2 |
| 20260505161526 | 12 | 19 | 3.2 | 9.7 | 0.00 | 0.00 | 0.00 | 52 | 1018.3 |
| 20260505161023 | 12 | 12 | 3.2 | 17.7 | 0.00 | 0.00 | 0.00 | 52 | 1018.6 |
| 20260505160521 | 12 | 8 | 8.0 | 9.7 | 0.00 | 0.00 | 0.00 | 55 | 1018.3 |
| 20260505152957 | 12 | 340 | 3.2 | 12.9 | 0.00 | 0.00 | 0.00 | 56 | 1018.7 |
| 20260505152455 | 12 | 29 | 8.0 | 16.1 | 0.00 | 0.00 | 0.00 | 56 | 1018.7 |
| 20260505151950 | 12 | 340 | 8.0 | 12.9 | 0.00 | 0.00 | 0.00 | 56 | 1018.7 |
| 20260505151445 | 12 | 10 | 8.0 | 12.9 | 0.00 | 0.00 | 0.00 | 58 | 1018.9 |
| 20260505150942 | 12 | 344 | 4.8 | 9.7 | 0.00 | 0.00 | 0.00 | 60 | 1018.8 |
| 20260505150434 | 12 | 25 | 6.4 | 16.1 | 0.00 | 0.00 | 0.00 | 60 | 1018.7 |
| 20260505140404 | 12 | 41 | 6.4 | 17.7 | 0.00 | 0.00 | 0.00 | 53 | 1018.9 |
| 20260505124818 | 13 | 28 | 0.0 | 0.0 | 0.00 | 0.00 | 0.00 | 44 | 1017.6 |
| 20260505124314 | 13 | 313 | 0.0 | 3.2 | 0.00 | 0.00 | 0.00 | 43 | 1017.9 |
| 20260505123810 | 13 | 96 | 0.0 | 0.0 | 0.00 | 0.00 | 0.00 | 43 | 1018.0 |
| 20260505123307 | 13 | 202 | 3.2 | 4.8 | 0.00 | 0.00 | 0.00 | 41 | 1017.9 |
| 20260505122803 | 13 | 250 | 1.6 | 3.2 | 0.00 | 0.00 | 0.00 | 41 | 1018.0 |
| 20260505122301 | 13 | 230 | 3.2 | 4.8 | 0.00 | 0.00 | 0.00 | 40 | 1017.9 |
| 20260505121757 | 13 | 238 | 1.6 | 4.8 | 0.00 | 0.00 | 0.00 | 39 | 1018.0 |
| 20260505121254 | 13 | 73 | 0.0 | 0.0 | 0.00 | 0.00 | 0.00 | 40 | 1018.0 |
| 20260505120750 | 13 | 48 | 0.0 | 0.0 | 0.00 | 0.00 | 0.00 | 39 | 1018.1 |
| 20260505120246 | 13 | 48 | 0.0 | 0.0 | 0.00 | 0.00 | 0.00 | 39 | 1017.7 |
| 20260505115744 | 13 | 135 | 0.0 | 0.0 | 0.00 | 0.00 | 0.00 | 38 | 1017.7 |
| 20260505115242 | 13 | 182 | 0.0 | 3.2 | 0.00 | 0.00 | 0.00 | 38 | 1017.7 |
| 20260505114739 | 13 | 353 | 0.0 | 3.2 | 0.00 | 0.00 | 0.00 | 38 | 1017.6 |
| 20260505114235 | 13 | 252 | 0.0 | 0.0 | 0.00 | 0.00 | 0.00 | 38 | 1017.5 |
| 20260505113732 | 13 | 250 | 0.0 | 4.8 | 0.00 | 0.00 | 0.00 | 37 | 1017.5 |
| 20260505113224 | 13 | 204 | 3.2 | 8.0 | 0.00 | 0.00 | 0.00 | 37 | 1017.5 |
| 20260505112720 | 13 | 208 | 0.0 | 0.0 | 0.00 | 0.00 | 0.00 | 37 | 1017.4 |
| 20260505112218 | 13 | 27 | 0.0 | 0.0 | 0.00 | 0.00 | 0.00 | 37 | 1017.5 |
| 20260505111717 | 13 | 13 | 0.0 | 0.0 | 0.00 | 0.00 | 0.00 | 37 | 1017.4 |
| 20260505111214 | 14 | 247 | 0.0 | 3.2 | 0.00 | 0.00 | 0.00 | 36 | 1017.6 |
| 20260505110709 | 14 | 273 | 0.0 | 3.2 | 0.00 | 0.00 | 0.00 | 35 | 1017.9 |
| 20260505110207 | 14 | 149 | 1.6 | 3.2 | 0.00 | 0.00 | 0.00 | 36 | 1017.7 |
| 20260505102143 | 14 | 200 | 1.6 | 4.8 | 0.00 | 0.00 | 0.00 | 35 | 1017.7 |
| 20260505101641 | 13 | 208 | 1.6 | 3.2 | 0.00 | 0.00 | 0.00 | 35 | 1017.7 |
| 20260505101137 | 13 | 208 | 0.0 | 0.0 | 0.00 | 0.00 | 0.00 | 36 | 1017.6 |
| 20260505100633 | 14 | 208 | 0.0 | 0.0 | 0.00 | 0.00 | 0.00 | 35 | 1017.7 |
| 20260505100130 | 14 | 208 | 0.0 | 0.0 | 0.00 | 0.00 | 0.00 | 35 | 1017.6 |
| 20260505095626 | 14 | 208 | 0.0 | 0.0 | 0.00 | 0.00 | 0.00 | 34 | 1017.5 |
| 20260505095124 | 14 | 273 | 0.0 | 3.2 | 0.00 | 0.00 | 0.00 | 34 | 1017.7 |
| 20260505094620 | 14 | 77 | 0.0 | 0.0 | 0.00 | 0.00 | 0.00 | 35 | 1017.5 |
| 20260505094116 | 14 | 68 | 0.0 | 0.0 | 0.00 | 0.00 | 0.00 | 35 | 1017.5 |
| 20260505093613 | 14 | 67 | 0.0 | 0.0 | 0.00 | 0.00 | 0.00 | 34 | 1017.5 |
| 20260505093110 | 15 | 63 | 0.0 | 0.0 | 0.00 | 0.00 | 0.00 | 34 | 1017.4 |
| 20260505092607 | 15 | 63 | 0.0 | 0.0 | 0.00 | 0.00 | 0.00 | 33 | 1017.5 |
| 20260505092106 | 15 | 37 | 0.0 | 4.8 | 0.00 | 0.00 | 0.00 | 32 | 1017.7 |
| 20260505091602 | 15 | 29 | 0.0 | 3.2 | 0.00 | 0.00 | 0.00 | 31 | 1017.7 |
| 20260505091101 | 15 | 20 | 3.2 | 3.2 | 0.00 | 0.00 | 0.00 | 31 | 1017.7 |
| 20260505090558 | 15 | 200 | 0.0 | 3.2 | 0.00 | 0.00 | 0.00 | 32 | 1017.7 |
| 20260505090056 | 15 | 194 | 1.6 | 8.0 | 0.00 | 0.00 | 0.00 | 32 | 1017.7 |
| 20260505085553 | 15 | 227 | 6.4 | 8.0 | 0.00 | 0.00 | 0.00 | 32 | 1017.9 |
| 20260505085051 | 15 | 318 | 3.2 | 8.0 | 0.00 | 0.00 | 0.00 | 32 | 1017.9 |
| 20260505084549 | 15 | 9 | 0.0 | 4.8 | 0.00 | 0.00 | 0.00 | 32 | 1018.0 |
| 20260505084047 | 15 | 332 | 4.8 | 8.0 | 0.00 | 0.00 | 0.00 | 32 | 1018.0 |
| 20260505083544 | 15 | 159 | 1.6 | 9.7 | 0.00 | 0.00 | 0.00 | 32 | 1018.4 |
| 20260505083040 | 15 | 288 | 1.6 | 4.8 | 0.00 | 0.00 | 0.00 | 32 | 1018.6 |
| 20260505082536 | 15 | 307 | 0.0 | 4.8 | 0.00 | 0.00 | 0.00 | 33 | 1018.4 |
| 20260505082033 | 16 | 191 | 1.6 | 4.8 | 0.00 | 0.00 | 0.00 | 32 | 1018.3 |
| 20260505081530 | 16 | 282 | 1.6 | 8.0 | 0.00 | 0.00 | 0.00 | 32 | 1018.3 |
| 20260505081027 | 16 | 354 | 0.0 | 9.7 | 0.00 | 0.00 | 0.00 | 32 | 1018.6 |
| 20260505080523 | 16 | 336 | 6.4 | 8.0 | 0.00 | 0.00 | 0.00 | 32 | 1018.3 |
| 20260505080020 | 16 | 251 | 3.2 | 4.8 | 0.00 | 0.00 | 0.00 | 32 | 1018.4 |
| 20260505075516 | 16 | 283 | 9.7 | 9.7 | 0.00 | 0.00 | 0.00 | 31 | 1018.4 |
| 20260505075013 | 16 | 349 | 0.0 | 3.2 | 0.00 | 0.00 | 0.00 | 32 | 1018.8 |
| 20260505074510 | 16 | 314 | 1.6 | 3.2 | 0.00 | 0.00 | 0.00 | 31 | 1018.7 |
| 20260505074007 | 16 | 329 | 3.2 | 8.0 | 0.00 | 0.00 | 0.00 | 31 | 1018.7 |
| 20260505073504 | 16 | 7 | 3.2 | 8.0 | 0.00 | 0.00 | 0.00 | 31 | 1018.6 |
| 20260505073003 | 16 | 341 | 8.0 | 12.9 | 0.00 | 0.00 | 0.00 | 31 | 1018.4 |
| 20260505072458 | 16 | 227 | 6.4 | 9.7 | 0.00 | 0.00 | 0.00 | 30 | 1018.4 |
| 20260505071954 | 16 | 278 | 9.7 | 17.7 | 0.00 | 0.00 | 0.00 | 30 | 1018.3 |
| 20260505071450 | 16 | 317 | 3.2 | 16.1 | 0.00 | 0.00 | 0.00 | 30 | 1018.1 |
| 20260505070948 | 16 | 214 | 4.8 | 8.0 | 0.00 | 0.00 | 0.00 | 29 | 1018.3 |
| 20260505070445 | 17 | 359 | 6.4 | 12.9 | 0.00 | 0.00 | 0.00 | 29 | 1018.0 |
| 20260505065940 | 17 | 264 | 4.8 | 12.9 | 0.00 | 0.00 | 0.00 | 29 | 1017.6 |
| 20260505065437 | 17 | 239 | 16.1 | 22.5 | 0.00 | 0.00 | 0.00 | 28 | 1017.7 |
| 20260505064934 | 17 | 237 | 17.7 | 20.9 | 0.00 | 0.00 | 0.00 | 28 | 1017.6 |
| 20260505064431 | 17 | 277 | 9.7 | 17.7 | 0.00 | 0.00 | 0.00 | 28 | 1017.9 |
| 20260505063929 | 17 | 219 | 3.2 | 9.7 | 0.00 | 0.00 | 0.00 | 28 | 1018.0 |
| 20260505063425 | 17 | 162 | 4.8 | 9.7 | 0.00 | 0.00 | 0.00 | 27 | 1017.9 |
| 20260505062922 | 17 | 0 | 3.2 | 12.9 | 0.00 | 0.00 | 0.00 | 27 | 1017.6 |
| 20260505062419 | 17 | 178 | 1.6 | 12.9 | 0.00 | 0.00 | 0.00 | 27 | 1017.7 |
| 20260505061916 | 17 | 293 | 11.3 | 12.9 | 0.00 | 0.00 | 0.00 | 26 | 1017.9 |
| 20260505061414 | 17 | 266 | 0.0 | 20.9 | 0.00 | 0.00 | 0.00 | 26 | 1017.7 |
| 20260505060911 | 17 | 225 | 12.9 | 20.9 | 0.00 | 0.00 | 0.00 | 26 | 1017.7 |
| 20260505060408 | 17 | 198 | 9.7 | 22.5 | 0.00 | 0.00 | 0.00 | 26 | 1017.7 |
| 20260505055904 | 17 | 256 | 9.7 | 12.9 | 0.00 | 0.00 | 0.00 | 26 | 1017.9 |
| 20260505055400 | 18 | 217 | 8.0 | 16.1 | 0.00 | 0.00 | 0.00 | 26 | 1017.9 |
| 20260505054857 | 18 | 255 | 4.8 | 12.9 | 0.00 | 0.00 | 0.00 | 25 | 1017.7 |
| 20260505054354 | 18 | 266 | 12.9 | 17.7 | 0.00 | 0.00 | 0.00 | 25 | 1017.6 |
| 20260505053853 | 18 | 236 | 6.4 | 9.7 | 0.00 | 0.00 | 0.00 | 25 | 1017.9 |
| 20260505053350 | 18 | 152 | 4.8 | 16.1 | 0.00 | 0.00 | 0.00 | 25 | 1017.5 |
| 20260505052846 | 18 | 324 | 6.4 | 16.1 | 0.00 | 0.00 | 0.00 | 25 | 1017.6 |
| 20260505052343 | 18 | 250 | 8.0 | 16.1 | 0.00 | 0.00 | 0.00 | 24 | 1017.3 |
| 20260505051840 | 18 | 254 | 12.9 | 16.1 | 0.00 | 0.00 | 0.00 | 24 | 1017.6 |
| 20260505051337 | 18 | 231 | 6.4 | 12.9 | 0.00 | 0.00 | 0.00 | 24 | 1017.5 |
| 20260505050836 | 18 | 169 | 4.8 | 8.0 | 0.00 | 0.00 | 0.00 | 24 | 1017.4 |
| 20260505050334 | 18 | 117 | 4.8 | 12.9 | 0.00 | 0.00 | 0.00 | 24 | 1017.5 |
| 20260505041301 | 19 | 194 | 1.6 | 3.2 | 0.00 | 0.00 | 0.00 | 25 | 1017.4 |
| 20260505040758 | 19 | 150 | 1.6 | 4.8 | 0.00 | 0.00 | 0.00 | 25 | 1017.1 |
| 20260505040256 | 19 | 219 | 3.2 | 4.8 | 0.00 | 0.00 | 0.00 | 24 | 1017.4 |
| 20260505035752 | 19 | 87 | 0.0 | 0.0 | 0.00 | 0.00 | 0.00 | 24 | 1017.5 |
| 20260505035248 | 19 | 48 | 0.0 | 4.8 | 0.00 | 0.00 | 0.00 | 24 | 1017.3 |
| 20260505034745 | 20 | 255 | 4.8 | 4.8 | 0.00 | 0.00 | 0.00 | 23 | 1017.3 |
| 20260505034242 | 20 | 10 | 0.0 | 3.2 | 0.00 | 0.00 | 0.00 | 24 | 1017.3 |
| 20260505033738 | 20 | 329 | 4.8 | 4.8 | 0.00 | 0.00 | 0.00 | 23 | 1017.3 |
| 20260505033236 | 20 | 311 | 0.0 | 8.0 | 0.00 | 0.00 | 0.00 | 23 | 1017.1 |
| 20260505032734 | 20 | 274 | 4.8 | 12.9 | 0.00 | 0.00 | 0.00 | 23 | 1017.1 |
| 20260505032230 | 20 | 19 | 1.6 | 8.0 | 0.00 | 0.00 | 0.00 | 23 | 1016.9 |
| 20260505031728 | 20 | 249 | 8.0 | 9.7 | 0.00 | 0.00 | 0.00 | 23 | 1016.8 |
| 20260505031224 | 20 | 247 | 1.6 | 8.0 | 0.00 | 0.00 | 0.00 | 22 | 1016.9 |
| 20260505030721 | 20 | 207 | 8.0 | 16.1 | 0.00 | 0.00 | 0.00 | 22 | 1016.7 |
| 20260505030217 | 20 | 350 | 4.8 | 12.9 | 0.00 | 0.00 | 0.00 | 22 | 1016.6 |
| 20260505025713 | 20 | 353 | 4.8 | 22.5 | 0.00 | 0.00 | 0.00 | 22 | 1016.7 |
| 20260505025211 | 20 | 322 | 6.4 | 12.9 | 0.00 | 0.00 | 0.00 | 21 | 1016.3 |